This is the latest recevied weather packets stored in our database for station/object KN6WGU. If no packets are shown the sender has not sent any weather packets the latest 10 day(s).
| Time | Temp. | Humidity | Pressure | Rain* | Wind** | Luminosity | Snow |
|---|---|---|---|---|---|---|---|
| 1787771454 | 27.22° C | 54% | 1007.5 hPa | 0 mm | - | 638 W/m² | - |
| 1787771152 | 27.22° C | 56% | 1007.5 hPa | 0 mm | - | 112 W/m² | - |
| 1787770848 | 27.78° C | 53% | 1007.6 hPa | 0 mm | - | 645 W/m² | - |
| 1787770546 | 28.33° C | 58% | 1007.7 hPa | 0 mm | - | 574 W/m² | - |
| 1787770241 | 27.78° C | 55% | 1007.7 hPa | 0 mm | - | 501 W/m² | - |
| 1787769940 | 27.78° C | 54% | 1007.7 hPa | 0 mm | - | 637 W/m² | - |
| 1787769635 | 27.78° C | 53% | 1007.7 hPa | 0 mm | - | 646 W/m² | - |
| 1787769333 | 27.22° C | 57% | 1007.7 hPa | 0 mm | - | 651 W/m² | - |
| 1787769028 | 26.67° C | 56% | 1007.8 hPa | 0 mm | - | 572 W/m² | - |
| 1787768724 | 26.11° C | 59% | 1007.9 hPa | 0 mm | - | 628 W/m² | - |
| 1787768420 | 26.11° C | 61% | 1007.9 hPa | 0 mm | - | 243 W/m² | - |
| 1787768115 | 25.56° C | 62% | 1007.8 hPa | 0 mm | - | 173 W/m² | - |
| 1787767810 | 25.56° C | 59% | 1008.2 hPa | 0 mm | - | 203 W/m² | - |
| 1787767506 | 25.56° C | 60% | 1008.3 hPa | 0 mm | - | 228 W/m² | - |
| 1787767203 | 25.56° C | 59% | 1008.4 hPa | 0 mm | - | 216 W/m² | - |
| 1787766902 | 25.56° C | 59% | 1008.4 hPa | 0 mm | - | 134 W/m² | - |
| 1787766597 | 25.56° C | 60% | 1008.6 hPa | 0 mm | - | 123 W/m² | - |
| 1787766296 | 25.56° C | 61% | 1008.6 hPa | 0 mm | - | 206 W/m² | - |
| 1787765991 | 25° C | 60% | 1008.6 hPa | 0 mm | - | 167 W/m² | - |
| 1787765688 | 25.56° C | 62% | 1008.8 hPa | 0 mm | - | 108 W/m² | - |
| 1787765383 | 26.11° C | 60% | 1008.6 hPa | 0 mm | - | 164 W/m² | - |
| 1787765077 | 26.11° C | 59% | 1008.7 hPa | 0 mm | - | 183 W/m² | - |
| 1787764772 | 26.11° C | 58% | 1008.9 hPa | 0 mm | - | 212 W/m² | - |
| 1787764467 | 25.56° C | 62% | 1008.9 hPa | 0 mm | - | 226 W/m² | - |
| 1787764163 | 25° C | 61% | 1008.8 hPa | 0 mm | - | 270 W/m² | - |
* Rain latest hour (hover to see other rain measurements)
** Current wind speed in m/s (hover to see current wind gust speed)